Weather History for KE38 - September, 2013

Change the Weather History Date:

Friday, September 6, 2013

  Actual Average (KMRF) Record (KMRF)
Temperature  
Mean Temperature 74 °F -  
Max Temperature 88 °F 81 °F 95 °F (2000)
Min Temperature 61 °F 55 °F 42 °F (2010)
Cooling Degree Days 10    
Growing Degree Days 24 (Base 50)    
Moisture  
Dew Point 55 °F    
Average Humidity 51    
Maximum Humidity 80    
Minimum Humidity 30    
Precipitation  
Precipitation 0.00 in - - ()
Sea Level Pressure  
Sea Level Pressure 30.26 in    
Wind  
Wind Speed 5 mph (SE)    
Max Wind Speed 15 mph    
Max Gust Speed 28 mph    
Visibility 10 miles    
Events      
Averages and records for this station are not official NWS values.
T = Trace of Precipitation, MM = Missing Value Source: NWS Daily Summary

Daily Weather History Graph

Daily Weather History Graph

Search for Another Location

Airport or City:

Trip Planner

Search our weather history database for the weather conditions in past years. The results will help you decide how hot, cold, wet, or windy it might be!

Date:

Astronomy

Sep. 06, 2013 Rise Set
Actual Time 7:34 AM CDT 8:11 PM CDT
Civil Twilight 7:10 AM CDT 8:35 PM CDT
Nautical Twilight 6:41 AM CDT 9:03 PM CDT
Astronomical Twilight 6:12 AM CDT 9:32 PM CDT
Moon 8:40 AM CDT (9/6) 8:47 PM CDT (9/6)
Length of Visible Light 13h 25m
Length of Day
12h 36m
New Moon, 2% of the Moon is Illuminated
Sep 6
New Moon
Sep 12
First Quarter
Sep 19
Full
Sep 26
Last Quarter
Oct 4
New

Hourly Weather History & Observations

Time (CDT) Temp. Heat Index Dew Point Humidity Pressure Visibility Wind Dir Wind Speed Gust Speed Precip Events Conditions
12:15 AM 73.4 °F - 55.4 °F 53% 30.31 in 10.0 mi Calm Calm - N/A   Clear
12:35 AM 73.6 °F - 55.4 °F 53% 30.30 in 10.0 mi Calm Calm - N/A   Clear
12:55 AM 72.5 °F - 55.2 °F 54% 30.30 in 10.0 mi ESE 5.8 mph - N/A   Clear
1:15 AM 72.3 °F - 55.8 °F 56% 30.29 in 10.0 mi ESE 5.8 mph - N/A   Clear
1:35 AM 71.4 °F - 56.3 °F 59% 30.29 in 10.0 mi Calm Calm - N/A   Clear
1:55 AM 70.7 °F - 56.3 °F 60% 30.29 in 10.0 mi Calm Calm - N/A   Clear
2:15 AM 71.2 °F - 55.6 °F 58% 30.29 in 10.0 mi SE 3.5 mph - N/A   Clear
2:35 AM 68.7 °F - 54.9 °F 61% 30.29 in 10.0 mi Calm Calm - N/A   Clear
2:55 AM 66.2 °F - 54.5 °F 66% 30.29 in 10.0 mi WNW 3.5 mph - N/A   Clear
3:15 AM 70.7 °F - 55.8 °F 59% 30.28 in 10.0 mi SE 3.5 mph - N/A   Clear
3:35 AM 69.4 °F - 56.3 °F 63% 30.27 in 10.0 mi South 3.5 mph - N/A   Clear
3:55 AM 64.8 °F - 54.7 °F 70% 30.27 in 10.0 mi Calm Calm - N/A   Clear
4:15 AM 64.6 °F - 55.0 °F 71% 30.27 in 10.0 mi SSW 6.9 mph - N/A   Clear
4:35 AM 68.5 °F - 56.3 °F 65% 30.27 in 10.0 mi Calm Calm - N/A   Clear
4:55 AM 67.1 °F - 56.1 °F 68% 30.27 in 10.0 mi SW 4.6 mph - N/A   Clear
5:15 AM 66.7 °F - 56.3 °F 69% 30.27 in 10.0 mi Calm Calm - N/A   Clear
5:35 AM 64.6 °F - 55.8 °F 73% 30.27 in 10.0 mi Calm Calm - N/A   Clear
5:55 AM 64.9 °F - 55.6 °F 72% 30.27 in 10.0 mi SW 3.5 mph - N/A   Clear
6:15 AM 65.1 °F - 55.9 °F 72% 30.28 in 10.0 mi WSW 3.5 mph - N/A   Clear
6:35 AM 63.3 °F - 55.4 °F 75% 30.28 in 10.0 mi WSW 4.6 mph - N/A   Clear
6:55 AM 63.3 °F - 55.4 °F 75% 30.28 in 10.0 mi WSW 5.8 mph - N/A   Clear
7:15 AM 61.3 °F - 54.7 °F 79% 30.28 in 10.0 mi WSW 5.8 mph - N/A   Clear
7:35 AM 62.8 °F - 55.4 °F 77% 30.28 in 10.0 mi SW 6.9 mph - N/A   Clear
7:55 AM 61.2 °F - 54.9 °F 80% 30.29 in 10.0 mi SSE 3.5 mph - N/A   Clear
8:15 AM 63.9 °F - 55.8 °F 75% 30.30 in 10.0 mi South 3.5 mph - N/A   Clear
8:35 AM 66.9 °F - 56.3 °F 69% 30.30 in 10.0 mi Calm Calm - N/A   Clear
8:55 AM 69.1 °F - 56.7 °F 65% 30.31 in 10.0 mi Calm Calm - N/A   Clear
9:15 AM 71.8 °F - 57.0 °F 60% 30.31 in 10.0 mi Calm Calm - N/A   Clear
9:35 AM 72.7 °F - 57.2 °F 58% 30.31 in 10.0 mi Calm Calm - N/A   Clear
9:55 AM 73.9 °F - 57.4 °F 56% 30.32 in 10.0 mi Calm Calm - N/A   Clear
10:15 AM 75.7 °F - 57.7 °F 53% 30.32 in 10.0 mi ESE 3.5 mph - N/A   Clear
10:35 AM 77.0 °F - 58.1 °F 52% 30.32 in 10.0 mi SE 4.6 mph - N/A   Clear
10:55 AM 78.8 °F - 57.4 °F 48% 30.32 in 10.0 mi ESE 6.9 mph - N/A   Scattered Clouds
11:15 AM 79.2 °F - 57.2 °F 47% 30.32 in 10.0 mi East 11.5 mph - N/A   Clear
11:35 AM 80.2 °F 80.4 °F 56.5 °F 44% 30.32 in 10.0 mi ESE 10.4 mph - N/A   Clear
11:55 AM 81.3 °F 81.1 °F 56.5 °F 42% 30.32 in 10.0 mi SE 10.4 mph - N/A   Scattered Clouds
12:15 PM 83.5 °F 82.8 °F 56.5 °F 40% 30.32 in 10.0 mi ESE 12.7 mph 18.4 mph N/A   Scattered Clouds
12:35 PM 82.8 °F 82.1 °F 56.1 °F 40% 30.31 in 10.0 mi ESE 9.2 mph 16.1 mph N/A   Scattered Clouds
12:55 PM 83.1 °F 82.4 °F 56.5 °F 40% 30.30 in 10.0 mi SE 3.5 mph - N/A   Scattered Clouds
1:15 PM 83.3 °F 82.3 °F 55.4 °F 38% 30.29 in 10.0 mi SE 10.4 mph - N/A   Mostly Cloudy
1:35 PM 82.6 °F 81.7 °F 54.9 °F 38% 30.28 in 10.0 mi East 9.2 mph - N/A   Scattered Clouds
1:55 PM 84.4 °F 83.1 °F 54.3 °F 36% 30.28 in 10.0 mi SSE 8.1 mph - N/A   Scattered Clouds
2:15 PM 87.3 °F 85.3 °F 53.6 °F 32% 30.27 in 10.0 mi ESE 12.7 mph 17.3 mph N/A   Clear
2:35 PM 86.7 °F - 52.0 °F 30% 30.26 in 10.0 mi ESE 6.9 mph 19.6 mph N/A   Clear
2:55 PM 86.5 °F 84.6 °F 53.6 °F 32% 30.24 in 10.0 mi SSE 9.2 mph 17.3 mph N/A   Clear
3:15 PM 88.0 °F 85.9 °F 54.1 °F 31% 30.24 in 10.0 mi SE 9.2 mph 17.3 mph N/A   Scattered Clouds
3:35 PM 87.8 °F 85.7 °F 53.8 °F 31% 30.22 in 10.0 mi East 12.7 mph 26.5 mph N/A   Scattered Clouds
3:55 PM 85.1 °F 83.5 °F 53.8 °F 34% 30.22 in 10.0 mi East 11.5 mph 23.0 mph N/A   Scattered Clouds
4:15 PM 85.5 °F 83.7 °F 53.6 °F 33% 30.21 in 10.0 mi East 11.5 mph 27.6 mph N/A   Clear
4:35 PM 86.9 °F 84.9 °F 53.8 °F 32% 30.20 in 10.0 mi ESE 12.7 mph 19.6 mph N/A   Scattered Clouds
4:55 PM 87.4 °F 85.3 °F 53.2 °F 31% 30.20 in 10.0 mi ESE 9.2 mph 16.1 mph N/A   Scattered Clouds
5:15 PM 87.4 °F - 52.5 °F 30% 30.19 in 10.0 mi SE 10.4 mph 19.6 mph N/A   Mostly Cloudy
5:35 PM 83.7 °F - 52.7 °F 34% 30.19 in 10.0 mi SE 10.4 mph - N/A   Scattered Clouds
5:55 PM 84.7 °F - 52.5 °F 33% 30.19 in 10.0 mi SE 13.8 mph - N/A   Scattered Clouds
6:15 PM 85.5 °F - 51.4 °F 31% 30.18 in 10.0 mi ESE 11.5 mph - N/A   Scattered Clouds
6:35 PM 85.3 °F - 52.2 °F 32% 30.18 in 10.0 mi SE 13.8 mph 18.4 mph N/A   Clear
6:55 PM 83.8 °F - 52.5 °F 34% 30.18 in 10.0 mi SE 15.0 mph 21.9 mph N/A   Clear
7:15 PM 82.8 °F - 52.3 °F 35% 30.19 in 10.0 mi ESE 9.2 mph - N/A   Clear
7:35 PM 81.0 °F - 52.2 °F 37% 30.19 in 10.0 mi ESE 13.8 mph - N/A   Clear
7:55 PM 80.1 °F - 52.7 °F 39% 30.19 in 10.0 mi SE 12.7 mph 18.4 mph N/A   Clear
8:15 PM 79.2 °F - 52.2 °F 39% 30.19 in 10.0 mi ESE 9.2 mph - N/A   Clear
8:35 PM 78.3 °F - 52.3 °F 40% 30.19 in 10.0 mi SE 9.2 mph 17.3 mph N/A   Clear
8:55 PM 77.4 °F - 52.9 °F 42% 30.20 in 10.0 mi SE 10.4 mph - N/A   Clear
9:15 PM 76.5 °F - 53.8 °F 45% 30.21 in 10.0 mi SE 9.2 mph 17.3 mph N/A   Clear
9:35 PM 75.7 °F - 54.5 °F 48% 30.21 in 10.0 mi SE 12.7 mph - N/A   Clear
9:55 PM 75.2 °F - 55.2 °F 50% 30.22 in 10.0 mi SE 12.7 mph 19.6 mph N/A   Clear
10:15 PM 75.2 °F - 55.8 °F 51% 30.22 in 10.0 mi SSE 10.4 mph - N/A   Clear
10:35 PM 74.5 °F - 55.9 °F 52% 30.22 in 10.0 mi SSE 12.7 mph 18.4 mph N/A   Clear
10:55 PM 74.1 °F - 55.9 °F 53% 30.23 in 10.0 mi SSE 8.1 mph - N/A   Clear
11:15 PM 73.4 °F - 55.6 °F 54% 30.24 in 10.0 mi South 4.6 mph - N/A   Clear
11:35 PM 73.2 °F - 55.6 °F 54% 30.24 in 10.0 mi Calm Calm - N/A   Clear
11:55 PM 72.9 °F - 55.4 °F 54% 30.24 in 10.0 mi Calm Calm - N/A   Clear